Flag for Germany Weather past 2 weeks in Melsungen, Hesse, Germany

34 °F

Low clouds.

Feels Like: 31 °F
Forecast: 33 / 42 °F
Wind: 3 mph from South

Location: Fritzlar

Current Time: Nov 25, 2015 at 8:27:35 AM

Latest Report: Nov 25, 2015 at 7:00 AM

Visibility: 5 mi

Pressure: 29.75 "Hg

Humidity: 92%

Dew point: 32 °F

Location of MelsungenLocation

Historic Weather in Melsungen — Graph


Melsungen temperature yesterday

Maximum temperature yesterday: 35 °F (at 1:00 PM)
Minimum temperature yesterday: 29 °F (at 12:00 AM)
Average temperature yesterday: 33 °F

Past Weeks' High & Low Weather Summary

High59 °F (Nov 18, 2:00 AM)95% (Nov 19, 9:00 PM)30.32 "Hg (Nov 19, 9:00 PM)
Low29 °F (Nov 23, 10:00 PM)56% (Nov 18, 11:00 AM)29.38 "Hg (Nov 21, 2:00 PM)
Average47 °F81%29.97 "Hg
* Reported Nov 10 7:00 AM — Nov 25 5:00 AM, Melsungen, Weather by CustomWeather, © 2015

Note: Actual official high and low records may vary slightly from our data, if they occured in-between our weather recording intervals... More about our weather records


Melsungen weather history for previous 24 hours

Time TempWeatherWind HumidityBarometerVisibility
5:00 AM
Wed, Nov 25
34 °FLight snow. Low clouds.3 mph91%29.76 "Hg6 mi
4:00 AM34 °FLight snow. Low clouds.3 mph91%29.77 "Hg5 mi
3:00 AM33 °FLight snow. Low clouds.3 mph91%29.78 "Hg5 mi
2:00 AM33 °FLight snow. Low clouds.3 mph92%29.80 "Hg3 mi
1:00 AM33 °FLight snow. Low clouds.5 mph92%29.82 "Hg3 mi
12:00 AM33 °FLight snow. Low clouds.7 mph92%29.84 "Hg3 mi
10:00 PM
Tue, Nov 24
34 °FSnow. Low clouds.7 mph89%29.88 "Hg2 mi
9:00 PM34 °FLight snow. Low clouds.6 mph90%29.91 "Hg3 mi
8:00 PM33 °FLight snow. Low clouds.8 mph91%29.94 "Hg3 mi
7:00 PM33 °FLight snow. Low clouds.6 mph91%29.96 "Hg2 mi
6:00 PM34 °FLight snow. Overcast.7 mph85%29.98 "Hg3 mi
5:00 PM34 °FLight snow. Overcast.7 mph82%30.01 "Hg4 mi
4:00 PM34 °FOvercast.8 mph81%30.03 "Hg11 mi
3:00 PM35 °FOvercast.9 mph80%30.05 "Hg11 mi
2:00 PM35 °FOvercast.10 mph81%30.09 "Hg11 mi
1:00 PM35 °FOvercast.8 mph84%30.11 "Hg12 mi
12:00 PM34 °FOvercast.8 mph86%30.16 "Hg9 mi
11:00 AM34 °FOvercast.8 mph85%30.19 "Hg9 mi
10:00 AM34 °FOvercast.5 mph86%30.20 "Hg9 mi
9:00 AM33 °FLow clouds.5 mph88%30.22 "Hg6 mi
Weather by CustomWeather, © 2015

See weather overviewHow to use our weather pages